BM2MWA-13 Weather Reports


Display with metric or nautical units.
time (UTC)temp
F
wind
direction
speed
MPH
gust
MPH
rain 1hr
in
rain 24hr
in
rain mn
in
humidity
%
barometer
mb
20260508060704 75 110 8.0 22.0 0.00 0.10 0.00 80 1010.6
20260508055704 75 70 5.0 22.0 0.00 0.10 0.00 79 1010.7
20260508054705 75 70 6.0 22.0 0.00 0.10 0.00 79 1010.8
20260508053703 76 70 6.0 22.0 0.00 0.10 0.00 78 1010.9
20260508052703 76 60 6.0 22.0 0.00 0.10 0.00 77 1010.9
20260508051704 76 80 5.0 22.0 0.00 0.10 0.00 76 1011.0
20260508050704 77 110 8.0 22.0 0.00 0.10 0.00 75 1010.8
20260508045703 77 100 9.0 22.0 0.00 0.10 0.00 75 1010.9
20260508044703 77 100 6.0 22.0 0.00 0.10 0.00 74 1010.9
20260508043704 77 100 8.0 22.0 0.00 0.10 0.00 75 1011.1
20260508042704 77 110 7.0 22.0 0.00 0.10 0.00 76 1011.2
20260508041703 77 100 6.0 22.0 0.00 0.10 0.00 76 1011.2
20260508040703 76 100 8.0 25.0 0.00 0.10 0.00 77 1011.3
20260508035703 76 100 8.0 25.0 0.00 0.10 0.00 78 1011.3
20260508034704 76 100 8.0 25.0 0.00 0.10 0.00 79 1011.4
20260508033704 76 100 8.0 25.0 0.00 0.10 0.00 80 1011.6
20260508032704 76 100 9.0 25.0 0.00 0.10 0.00 80 1011.5
20260508031703 75 100 9.0 25.0 0.00 0.10 0.00 81 1011.5
20260508030703 75 100 10.0 15.0 0.00 0.10 0.00 81 1011.5
20260508025703 76 100 9.0 15.0 0.00 0.10 0.00 81 1011.3
20260508024703 76 100 9.0 15.0 0.00 0.10 0.00 81 1011.3
20260508023703 77 90 7.0 15.0 0.00 0.10 0.00 80 1011.3
20260508022705 78 100 7.0 15.0 0.00 0.10 0.00 78 1011.3
20260508021703 79 110 5.0 15.0 0.00 0.10 0.00 79 1011.2
20260508020703 79 100 4.0 6.0 0.00 0.10 0.00 78 1011.1
20260508015704 79 130 3.0 6.0 0.00 0.10 0.00 78 1011.1
20260508014704 80 220 2.0 6.0 0.00 0.10 0.00 77 1011.0
20260508013703 80 230 3.0 6.0 0.00 0.10 0.00 77 1011.0
20260508012704 80 170 2.0 6.0 0.00 0.10 0.00 77 1011.0
20260508011703 80 170 3.0 6.0 0.00 0.10 0.00 76 1011.0
20260508010703 80 220 1.0 5.0 0.00 0.10 0.00 78 1011.0
20260508005703 79 140 2.0 5.0 0.00 0.10 0.00 77 1010.8
20260508004703 79 140 2.0 5.0 0.00 0.10 0.00 78 1010.8
20260508003703 79 140 2.0 5.0 0.00 0.10 0.00 78 1010.7
20260508002703 78 100 1.0 5.0 0.00 0.10 0.00 78 1010.6
20260508001703 78 100 2.0 5.0 0.00 0.10 0.00 80 1010.6
20260508000703 78 130 2.0 7.0 0.00 0.10 0.00 79 1010.4
20260507235703 77 130 3.0 7.0 0.00 0.10 0.00 80 1010.4
20260507234703 77 120 2.0 7.0 0.00 0.10 0.00 80 1010.4
20260507233703 77 140 2.0 7.0 0.00 0.10 0.00 80 1010.4
20260507232703 76 160 2.0 7.0 0.00 0.10 0.00 82 1010.3
20260507231703 76 170 2.0 7.0 0.00 0.10 0.00 83 1010.3
20260507230703 75 190 2.0 7.0 0.00 0.10 0.00 82 1010.2
20260507225703 75 220 2.0 7.0 0.00 0.10 0.00 84 1010.2
20260507224703 75 230 2.0 7.0 0.00 0.10 0.00 83 1010.0
20260507223703 75 200 2.0 7.0 0.00 0.10 0.00 83 1009.8
20260507222703 74 170 4.0 7.0 0.00 0.10 0.00 83 1009.7
20260507221703 74 180 4.0 7.0 0.00 0.10 0.00 83 1009.6
20260507220703 74 180 3.0 6.0 0.00 0.10 0.00 83 1009.5
20260507215705 74 170 1.0 6.0 0.00 0.10 0.00 83 1009.4
20260507214704 74 170 2.0 6.0 0.00 0.10 0.00 84 1009.3
20260507213703 74 170 2.0 6.0 0.00 0.10 0.00 84 1009.2
20260507212704 74 150 3.0 6.0 0.00 0.10 0.00 83 1009.1
20260507211703 74 180 3.0 6.0 0.00 0.10 0.00 84 1009.2
20260507210703 74 180 2.0 6.0 0.00 0.10 0.00 85 1009.2
20260507205704 74 180 1.0 6.0 0.00 0.10 0.00 86 1009.0
20260507204704 74 170 2.0 6.0 0.00 0.10 0.00 86 1008.9
20260507203703 74 150 2.0 6.0 0.00 0.10 0.00 85 1008.7
20260507202705 74 150 3.0 6.0 0.00 0.10 0.00 86 1008.6
20260507201703 74 170 2.0 6.0 0.00 0.10 0.00 87 1008.5
20260507200703 74 180 3.0 6.0 0.00 0.10 0.00 85 1008.4
20260507195704 74 170 3.0 6.0 0.00 0.10 0.00 85 1008.3
20260507194703 74 180 4.0 6.0 0.00 0.10 0.00 87 1008.3
20260507193703 74 170 2.0 6.0 0.00 0.10 0.00 88 1008.3
20260507192704 75 180 3.0 6.0 0.00 0.10 0.00 88 1008.2
20260507191703 75 180 3.0 6.0 0.00 0.10 0.00 88 1008.1
20260507190703 74 180 2.0 7.0 0.00 0.10 0.00 89 1008.2
20260507185703 75 180 2.0 7.0 0.00 0.10 0.00 87 1008.2
20260507184703 75 170 3.0 7.0 0.00 0.10 0.00 86 1008.1
20260507183703 75 150 2.0 7.0 0.00 0.10 0.00 86 1008.2
20260507182703 75 190 2.0 7.0 0.00 0.10 0.00 84 1008.1
20260507181703 75 170 3.0 7.0 0.00 0.10 0.00 85 1008.2
20260507180703 75 170 1.0 7.0 0.00 0.10 0.00 88 1008.0
20260507175704 75 220 2.0 7.0 0.00 0.10 0.00 87 1008.0
20260507174704 76 200 1.0 7.0 0.00 0.10 0.00 87 1007.9
20260507173703 76 180 4.0 7.0 0.00 0.10 0.00 86 1007.9
20260507172703 76 180 3.0 7.0 0.00 0.10 0.00 87 1007.9
20260507171704 76 180 4.0 7.0 0.00 0.10 0.00 86 1007.9
20260507170705 76 180 4.0 6.0 0.00 0.10 0.00 86 1008.0
20260507165703 76 180 4.0 6.0 0.00 0.10 0.00 84 1008.1
20260507164704 77 200 3.0 6.0 0.00 0.10 0.00 85 1008.2
20260507163703 77 190 1.0 6.0 0.00 0.10 0.00 84 1008.3
20260507162703 77 190 1.0 6.0 0.00 0.10 0.00 84 1008.3
20260507161703 77 170 2.0 6.0 0.00 0.10 0.00 84 1008.5
20260507160703 77 170 3.0 7.0 0.00 0.10 0.10 85 1008.6
20260507155703 77 150 2.0 7.0 0.00 0.10 0.10 85 1008.6
20260507154703 77 180 2.0 7.0 0.00 0.10 0.10 84 1008.8
20260507153703 77 180 2.0 7.0 0.00 0.10 0.10 85 1008.8
20260507152704 77 170 1.0 7.0 0.00 0.10 0.10 86 1008.8
20260507151703 78 160 2.0 7.0 0.00 0.10 0.10 83 1008.9
20260507150703 78 180 1.0 7.0 0.00 0.10 0.10 83 1009.0
20260507145705 78 170 1.0 7.0 0.00 0.10 0.10 82 1009.0
20260507144704 78 160 3.0 7.0 0.00 0.10 0.10 83 1009.1
20260507143704 78 180 4.0 7.0 0.00 0.10 0.10 83 1009.1
20260507142705 78 190 4.0 7.0 0.00 0.10 0.10 83 1009.0
20260507141704 78 180 4.0 7.0 0.00 0.10 0.10 83 1008.9
20260507140703 77 180 3.0 7.0 0.00 0.10 0.10 84 1008.9
20260507135703 78 150 3.0 7.0 0.00 0.10 0.10 84 1008.9
20260507134703 78 150 2.0 7.0 0.00 0.10 0.10 82 1008.9
20260507133703 78 150 3.0 7.0 0.00 0.10 0.10 83 1008.9
20260507132704 78 140 3.0 7.0 0.00 0.10 0.10 84 1008.8
20260507131703 78 180 3.0 7.0 0.00 0.10 0.10 83 1008.7
20260507130703 78 180 4.0 7.0 0.00 0.10 0.10 83 1008.7
20260507125703 78 170 1.0 7.0 0.00 0.10 0.10 85 1008.6
20260507124704 78 140 1.0 7.0 0.00 0.10 0.10 85 1008.5
20260507123703 78 160 2.0 7.0 0.00 0.10 0.10 85 1008.5
20260507122705 78 150 2.0 7.0 0.00 0.10 0.10 83 1008.5
20260507121704 78 170 3.0 7.0 0.00 0.10 0.10 84 1008.4
20260507120703 78 180 3.0 5.0 0.00 0.10 0.10 83 1008.3
20260507115703 78 170 4.0 5.0 0.00 0.10 0.10 83 1008.2
20260507114703 79 160 4.0 5.0 0.00 0.10 0.10 82 1008.1
20260507113703 79 180 5.0 5.0 0.00 0.10 0.10 83 1008.0
20260507112707 79 190 3.0 5.0 0.00 0.10 0.10 84 1007.9
20260507111703 79 220 2.0 5.0 0.00 0.10 0.10 85 1007.8
20260507110703 79 210 1.0 7.0 0.00 0.10 0.10 86 1007.8
20260507105704 79 190 2.0 7.0 0.00 0.10 0.10 86 1007.7
20260507104703 79 130 2.0 7.0 0.00 0.10 0.10 84 1007.6
20260507103704 79 150 3.0 7.0 0.00 0.10 0.10 85 1007.6
20260507102704 79 140 3.0 7.0 0.00 0.10 0.10 84 1007.5
20260507101703 79 150 3.0 7.0 0.00 0.10 0.10 85 1007.4
20260507100703 79 80 1.0 11.0 0.00 0.10 0.10 86 1007.3
20260507095704 78 250 1.0 11.0 0.00 0.10 0.10 88 1007.3
20260507094703 79 280 2.0 11.0 0.00 0.10 0.10 85 1007.2
20260507093704 79 0 0.0 11.0 0.00 0.10 0.10 87 1007.1
20260507092704 78 320 2.0 11.0 0.00 0.10 0.10 87 1006.9
20260507091704 78 30 2.0 11.0 0.10 0.10 0.10 92 1006.8
20260507090703 78 60 3.0 12.0 0.10 0.10 0.10 89 1006.7
20260507085704 78 70 3.0 12.0 0.10 0.10 0.10 89 1006.7
20260507084703 78 40 4.0 12.0 0.10 0.10 0.10 90 1006.6
20260507083703 79 0 4.0 12.0 0.10 0.10 0.10 89 1006.5
20260507082703 82 0 4.0 12.0 0.10 0.10 0.10 76 1006.5
20260507081704 82 350 5.0 12.0 0.00 0.00 0.00 74 1006.4
20260507080703 83 340 6.0 11.0 0.00 0.00 0.00 72 1006.3
20260507075703 84 340 3.0 11.0 0.00 0.00 0.00 68 1006.3
20260507074703 84 80 4.0 11.0 0.00 0.00 0.00 67 1006.3
20260507073703 84 100 4.0 11.0 0.00 0.00 0.00 67 1006.2
20260507072703 84 110 4.0 11.0 0.00 0.00 0.00 67 1006.2
20260507071703 85 70 3.0 11.0 0.00 0.00 0.00 66 1006.3
20260507070703 85 100 2.0 15.0 0.00 0.00 0.00 65 1006.3
20260507065704 86 20 3.0 15.0 0.00 0.00 0.00 67 1006.3
20260507064703 85 10 4.0 15.0 0.00 0.00 0.00 68 1006.3
20260507063704 87 350 3.0 15.0 0.00 0.00 0.00 65 1006.4
20260507062703 85 340 5.0 15.0 0.00 0.00 0.00 69 1006.6
20260507061703 86 340 5.0 15.0 0.00 0.00 0.00 67 1006.7